Location: Prairie State College
(41.5244°N, 87.6382°W)
Time: 20:01:17
(UTC-06:00)

ARGOS Delta rocket - Visible Passes

Search period start: 19 February 2018 00:00
Search period end: 01 March 2018 00:00
Orbit: 636 x 838 km, 96.5° (Epoch: 19 February)

Date Brightness Start Highest point End Pass type
(mag) Time Alt. Az. Time Alt. Az. Time Alt. Az.
19 Feb 6.3 05:37:00 10° SE 05:41:37 29° ENE 05:46:12 10° NNE visible
19 Feb 3.7 19:19:42 10° N 19:24:40 90° ESE 19:29:19 10° SSW visible
19 Feb 7.0 21:01:26 10° NW 21:02:25 11° WNW 21:03:24 10° WNW visible
20 Feb 7.2 04:55:06 10° E 04:57:09 12° ENE 04:59:10 10° NE visible
20 Feb 4.5 18:35:05 10° NNE 18:39:26 32° E 18:43:34 10° SSE visible
20 Feb 5.8 20:13:53 10° NNW 20:17:57 27° WNW 20:21:50 10° SW visible
21 Feb 6.0 05:45:11 10° SE 05:50:05 35° ENE 05:54:56 10° N visible
21 Feb 4.0 19:28:16 10° N 19:33:08 72° WNW 19:37:43 10° SSW visible
22 Feb 7.0 05:02:35 10° E 05:05:31 15° ENE 05:08:27 10° NNE visible
22 Feb 4.2 18:43:27 10° NNE 18:47:59 40° E 18:52:17 10° SSE visible
22 Feb 6.2 20:22:43 10° NNW 20:26:20 21° WNW 20:29:48 10° WSW visible
23 Feb 5.6 05:53:27 10° SE 05:58:34 42° ENE 06:03:37 10° N visible
23 Feb 5.3 17:59:56 10° NE 18:02:30 14° E 18:04:59 10° ESE visible
23 Feb 4.4 19:36:53 10° N 19:41:36 56° WNW 19:46:04 10° SSW visible
24 Feb 6.9 05:10:21 10° ESE 05:13:56 18° ENE 05:17:28 10° NNE visible
24 Feb 3.9 18:51:52 10° NNE 18:56:32 51° E 19:00:56 10° S visible
24 Feb 6.5 20:31:40 10° NNW 20:34:41 17° WNW 20:37:38 10° WSW visible
25 Feb 5.2 06:01:47 10° SSE 06:07:04 52° ENE 06:12:15 10° N visible
25 Feb 5.1 18:07:54 10° NE 18:11:07 18° E 18:14:13 10° SE visible
25 Feb 4.9 19:45:32 10° N 19:50:02 43° WNW 19:54:19 10° SW visible
26 Feb 6.7 05:18:18 10° ESE 05:22:22 22° ENE 05:26:21 10° NNE visible
26 Feb 3.6 19:00:20 10° NNE 19:05:02 65° E 19:09:30 10° S visible
26 Feb 6.8 20:40:50 10° NW 20:43:03 13° WNW 20:45:13 10° W visible
27 Feb 4.8 18:16:02 10° NE 18:19:42 22° E 18:23:14 10° SE visible
27 Feb 5.3 19:54:14 10° N 19:58:27 34° WNW 20:02:30 10° SW visible
28 Feb 6.4 05:26:22 10° ESE 05:30:48 26° ENE 05:35:08 10° NNE visible
28 Feb 3.6 19:08:50 10° NNE 19:13:32 84° ESE 19:18:00 10° S visible
28 Feb 7.0 20:50:43 10° NW 20:51:22 10° WNW 20:52:02 10° WNW visible
